Howell, MI

5:47 AM EDT on September 24, 2017 (GMT -0400)
Livingston County

Weather History for KOZW - October, 2011

Change the Weather History Date:

Tuesday, October 25, 2011

  Actual Average Record
Temperature  
Mean Temperature 53 °F -  
Max Temperature 64 °F 55 °F 76 °F (2012)
Min Temperature 42 °F 38 °F 28 °F (2002)
Degree Days  
Heating Degree Days 12    
Growing Degree Days 3 (Base 50)    
Moisture  
Dew Point 38 °F    
Average Humidity 67    
Maximum Humidity 87    
Minimum Humidity 37    
Precipitation  
Precipitation 0.00 in - - ()
Sea Level Pressure  
Sea Level Pressure 30.05 in    
Wind  
Wind Speed 5 mph (South)    
Max Wind Speed 15 mph    
Max Gust Speed 22 mph    
Visibility 10 miles    
Events Rain    
Averages and records for this station are not official NWS values.
T = Trace of Precipitation, MM = Missing Value Source: NWS Daily Summary

Daily Weather History Graph

Daily Weather History Graph

Search for Another Location

Airport or City:

Trip Planner

Search our weather history database for the weather conditions in past years. The results will help you decide how hot, cold, wet, or windy it might be!

Date:

Astronomy

Oct. 25, 2011 Rise Set
Actual Time 8:00 AM EDT 6:38 PM EDT
Civil Twilight 7:31 AM EDT 7:07 PM EDT
Nautical Twilight 6:58 AM EDT 7:40 PM EDT
Astronomical Twilight 6:26 AM EDT 8:13 PM EDT
Moon 6:31 AM EDT (10/25) 5:39 PM EDT (10/25)
Length of Visible Light 11h 35m
Length of Day
10h 37m
Waning Crescent, 2% of the Moon is Illuminated
Oct 25
Waning Crescent
Oct 26
New
Nov 2
First Quarter
Nov 10
Full
Nov 18
Last Quarter

Hourly Weather History & Observations

Time (EDT) Temp. Windchill Dew Point Humidity Pressure Visibility Wind Dir Wind Speed Gust Speed Precip Events Conditions
12:14 AM 42.8 °F 40.1 °F 35.6 °F 76% 30.09 in 10.0 mi WSW 4.6 mph - N/A   Clear
12:35 AM 42.8 °F 40.1 °F 35.6 °F 76% 30.10 in 10.0 mi SW 4.6 mph - N/A   Clear
12:55 AM 42.8 °F 41.1 °F 35.6 °F 76% 30.10 in 10.0 mi SW 3.5 mph - N/A   Clear
1:15 AM 42.8 °F 40.1 °F 35.6 °F 76% 30.11 in 10.0 mi WSW 4.6 mph - N/A   Clear
1:35 AM 42.8 °F 40.1 °F 35.6 °F 76% 30.11 in 10.0 mi SW 4.6 mph - N/A   Clear
1:54 AM 42.8 °F 40.1 °F 35.6 °F 76% 30.11 in 10.0 mi SW 4.6 mph - N/A   Clear
2:15 AM 42.8 °F 41.1 °F 35.6 °F 76% 30.12 in 10.0 mi SW 3.5 mph - N/A   Clear
2:35 AM 42.8 °F 41.1 °F 35.6 °F 76% 30.12 in 10.0 mi WSW 3.5 mph - N/A   Clear
3:15 AM 42.8 °F 40.1 °F 35.6 °F 76% 30.13 in 10.0 mi WSW 4.6 mph - N/A   Clear
3:34 AM 42.8 °F 40.1 °F 35.6 °F 76% 30.13 in 10.0 mi WSW 4.6 mph - N/A   Clear
3:55 AM 42.8 °F 41.1 °F 35.6 °F 76% 30.13 in 10.0 mi SW 3.5 mph - N/A   Scattered Clouds
4:15 AM 42.8 °F 40.1 °F 35.6 °F 76% 30.13 in 10.0 mi SW 4.6 mph - N/A   Scattered Clouds
4:34 AM 42.8 °F 40.1 °F 35.6 °F 76% 30.14 in 10.0 mi SW 4.6 mph - N/A   Overcast
4:55 AM 42.8 °F 41.1 °F 35.6 °F 76% 30.13 in 10.0 mi SW 3.5 mph - N/A   Scattered Clouds
5:14 AM 42.8 °F 41.1 °F 35.6 °F 76% 30.13 in 10.0 mi SW 3.5 mph - N/A   Clear
5:34 AM 42.8 °F 41.1 °F 35.6 °F 76% 30.13 in 10.0 mi SW 3.5 mph - N/A   Clear
5:55 AM 42.8 °F - 35.6 °F 76% 30.13 in 10.0 mi Calm Calm - N/A   Clear
6:15 AM 42.8 °F - 35.6 °F 76% 30.13 in 10.0 mi Calm Calm - N/A   Scattered Clouds
6:34 AM 42.8 °F - 35.6 °F 76% 30.13 in 10.0 mi Calm Calm - N/A   Scattered Clouds
6:55 AM 44.6 °F 42.2 °F 35.6 °F 71% 30.12 in 10.0 mi SSW 4.6 mph - N/A   Scattered Clouds
7:14 AM 44.6 °F 41.4 °F 35.6 °F 71% 30.13 in 10.0 mi SW 5.8 mph - N/A   Mostly Cloudy
7:35 AM 44.6 °F 40.7 °F 37.4 °F 76% 30.12 in 10.0 mi SSW 6.9 mph - N/A   Overcast
7:55 AM 44.6 °F 41.4 °F 35.6 °F 71% 30.12 in 10.0 mi SSW 5.8 mph - N/A   Overcast
8:14 AM 44.6 °F 43.1 °F 35.6 °F 71% 30.13 in 10.0 mi SW 3.5 mph - N/A Rain Light Rain
8:35 AM 44.6 °F - 37.4 °F 76% 30.13 in 10.0 mi Calm Calm - N/A Rain Light Rain
8:55 AM 44.6 °F - 41.0 °F 87% 30.13 in 10.0 mi Calm Calm - N/A   Overcast
9:14 AM 44.6 °F - 41.0 °F 87% 30.12 in 10.0 mi Calm Calm - N/A   Overcast
9:35 AM 44.6 °F - 41.0 °F 87% 30.12 in 10.0 mi Calm Calm - N/A   Mostly Cloudy
9:54 AM 46.4 °F - 41.0 °F 81% 30.11 in 10.0 mi Calm Calm - N/A   Mostly Cloudy
10:15 AM 48.2 °F - 41.0 °F 76% 30.12 in 10.0 mi Calm Calm - N/A   Overcast
10:35 AM 50.0 °F - 42.8 °F 76% 30.10 in 10.0 mi ESE 5.8 mph - N/A   Overcast
10:54 AM 51.8 °F - 39.2 °F 62% 30.10 in 10.0 mi Calm Calm - N/A   Overcast
11:15 AM 51.8 °F - 41.0 °F 67% 30.10 in 10.0 mi Calm Calm - N/A   Overcast
11:35 AM 51.8 °F - 41.0 °F 67% 30.11 in 10.0 mi Calm Calm - N/A   Overcast
11:54 AM 51.8 °F - 41.0 °F 67% 30.10 in 10.0 mi ENE 3.5 mph - N/A   Overcast
12:34 PM 51.8 °F - 42.8 °F 71% 30.08 in 10.0 mi ESE 4.6 mph - N/A   Overcast
12:55 PM 51.8 °F - 41.0 °F 67% 30.07 in 10.0 mi SE 8.1 mph - N/A   Overcast
1:14 PM 51.8 °F - 41.0 °F 67% 30.04 in 10.0 mi East 5.8 mph - N/A Rain Light Rain
1:34 PM 51.8 °F - 41.0 °F 67% 30.02 in 7.0 mi ESE 10.4 mph - N/A   Overcast
1:55 PM 53.6 °F - 41.0 °F 62% 30.00 in 10.0 mi SE 13.8 mph 17.3 mph N/A   Overcast
2:35 PM 59.0 °F - 41.0 °F 51% 29.96 in 10.0 mi SSE 11.5 mph 21.9 mph N/A   Scattered Clouds
3:14 PM 60.8 °F - 41.0 °F 48% 29.92 in 10.0 mi SSE 12.7 mph 19.6 mph N/A   Scattered Clouds
3:35 PM 62.6 °F - 39.2 °F 42% 29.90 in 10.0 mi SSE 15.0 mph 21.9 mph N/A   Clear
3:55 PM 62.6 °F - 41.0 °F 45% 29.89 in 10.0 mi SSE 15.0 mph - N/A   Clear
4:35 PM 64.4 °F - 37.4 °F 37% 29.88 in 10.0 mi South 13.8 mph - N/A   Scattered Clouds
4:55 PM 64.4 °F - 37.4 °F 37% 29.88 in 10.0 mi SSW 10.4 mph - N/A   Clear
5:14 PM 64.4 °F - 37.4 °F 37% 29.87 in 10.0 mi South 9.2 mph 17.3 mph N/A   Mostly Cloudy
5:35 PM 64.4 °F - 37.4 °F 37% 29.86 in 10.0 mi South 6.9 mph - N/A   Overcast
5:55 PM 62.6 °F - 39.2 °F 42% 29.86 in 10.0 mi SSE 5.8 mph - N/A   Mostly Cloudy
6:14 PM 60.8 °F - 41.0 °F 48% 29.85 in 10.0 mi SE 3.5 mph - N/A   Mostly Cloudy
6:35 PM 60.8 °F - 41.0 °F 48% 29.86 in 10.0 mi East 4.6 mph - N/A   Overcast
7:15 PM 59.0 °F - 41.0 °F 51% 29.88 in 10.0 mi East 4.6 mph - N/A   Overcast
7:34 PM 57.2 °F - 42.8 °F 59% 29.87 in 10.0 mi ESE 4.6 mph - N/A   Mostly Cloudy
7:54 PM 59.0 °F - 42.8 °F 55% 29.87 in 10.0 mi ENE 4.6 mph - N/A   Mostly Cloudy
8:15 PM 55.4 °F - 42.8 °F 63% 29.87 in 10.0 mi East 5.8 mph - N/A Rain Light Rain
8:34 PM 55.4 °F - 42.8 °F 63% 29.86 in 10.0 mi East 4.6 mph - N/A   Overcast
9:15 PM 53.6 °F - 44.6 °F 72% 29.85 in 10.0 mi East 6.9 mph - N/A   Overcast
9:34 PM 53.6 °F - 44.6 °F 72% 29.83 in 10.0 mi ESE 9.2 mph - N/A   Overcast
9:55 PM 53.6 °F - 44.6 °F 72% 29.83 in 10.0 mi ESE 8.1 mph - N/A   Overcast
10:15 PM 53.6 °F - 44.6 °F 72% 29.83 in 10.0 mi SE 6.9 mph - N/A   Overcast
10:34 PM 53.6 °F - 46.4 °F 77% 29.82 in 10.0 mi SE 8.1 mph - N/A Rain Light Rain
10:55 PM 53.6 °F - 46.4 °F 77% 29.82 in 10.0 mi SSE 9.2 mph - N/A   Overcast
11:14 PM 55.4 °F - 44.6 °F 67% 29.80 in 10.0 mi SSE 8.1 mph - N/A   Overcast
11:34 PM 57.2 °F - 44.6 °F 63% 29.79 in 10.0 mi South 12.7 mph - N/A   Overcast
11:55 PM 59.0 °F - 42.8 °F 55% 29.78 in 10.0 mi South 9.2 mph - N/A   Overcast